{"data":{"norad_id":67096,"intl_designator":"2025-298X","name":"STARLINK-36228","alt_names":[],"object_type":"PAYLOAD","status":"ACTIVE","operator":null,"country":"US","launch_date":"2025-12-14","launch_site_code":"AFWTR","launch_vehicle":null,"mission":null,"orbit_class":"UNKNOWN","rcs_meters":null,"size_class":null,"mass_kg":null,"dimensions":null,"purposes":["comms"],"wikipedia_slug":null,"has_3d_model":false,"image_url":null,"decayed_at":null,"tle_current":{"epoch":"2026-05-25T02:43:12.145728Z","epoch_age_seconds":61397,"freshness":"FRESH","line1":"1 67096U 25298X   26145.11333502  .00003585  00000+0  30810-3 0  9995","line2":"2 67096  70.0010 181.8084 0003777 269.7429  90.3298 14.98331525 24661","mean_motion":14.98331525,"eccentricity":0.0003777,"inclination_deg":70.001,"raan_deg":181.8084,"arg_perigee_deg":269.7429,"mean_anomaly_deg":90.3298,"bstar":0.0003081,"rev_number":2466,"period_min":96.106901308107,"perigee_km":569.42608893801,"apogee_km":574.67626108542,"semimajor_km":6950.1881750117,"source":"CELESTRAK","updated_at":"2026-05-25T13:38:21.470952Z"}}}